RYR4479 EDDN-EYVI

Flight info

Callsign RYR4479
Flight time N/A
Altitude 31000
Route ERETO1C ERETO Z715 ABKIS L132 EKPEK/N0434F370 DCT POZUM DCT KELOD DCT ATMIR DCT SOMOR DCT BARGU N858 BOKSU DCT IRKAL
Aircraft B738/M-SADFGHIJ1J7LP2RWXYZ/SB1D1G1

Departure

Time 2026-05-01 14:39
Airport Nuremberg Airport (EDDN)

Arrival

Time N/A
Airport Vilnius International Airport (EYVI)
Time Latitude Longitude Altitude Speed Heading
2026-05-01 14:02 49.49517 11.07854 1028 ft 0 kts 189°
2026-05-01 14:28 49.49519 11.07854 1028 ft 1 kts 189°
2026-05-01 14:28 49.49534 11.07858 1028 ft 2 kts 189°
2026-05-01 14:28 49.49549 11.07861 1027 ft 2 kts 189°
2026-05-01 14:29 49.49564 11.07867 1027 ft 2 kts 218°
2026-05-01 14:29 49.49573 11.07885 1027 ft 2 kts 255°
2026-05-01 14:30 49.49572 11.07912 1027 ft 0 kts 284°
2026-05-01 14:32 49.49572 11.07910 1027 ft 1 kts 284°
2026-05-01 14:32 49.49577 11.07855 1026 ft 8 kts 278°
2026-05-01 14:33 49.49586 11.07768 1026 ft 0 kts 278°
2026-05-01 14:33 49.49592 11.07760 1026 ft 2 kts 355°
2026-05-01 14:33 49.49633 11.07768 1026 ft 8 kts
2026-05-01 14:33 49.49686 11.07718 1025 ft 12 kts 284°
2026-05-01 14:34 49.49700 11.07572 1024 ft 14 kts 278°
2026-05-01 14:34 49.49715 11.07418 1022 ft 14 kts 279°
2026-05-01 14:34 49.49731 11.07260 1021 ft 15 kts 278°
2026-05-01 14:34 49.49745 11.07102 1020 ft 14 kts 278°
2026-05-01 14:35 49.49762 11.06948 1020 ft 14 kts 279°
2026-05-01 14:35 49.49777 11.06794 1019 ft 14 kts 278°
2026-05-01 14:35 49.49791 11.06649 1019 ft 10 kts 278°
2026-05-01 14:35 49.49809 11.06551 1018 ft 8 kts 308°
2026-05-01 14:36 49.49853 11.06514 1018 ft 3 kts 338°
2026-05-01 14:36 49.49875 11.06501 1019 ft 2 kts 338°
2026-05-01 14:36 49.49878 11.06499 1019 ft 0 kts 338°
2026-05-01 14:37 49.49887 11.06494 1019 ft 5 kts 339°
2026-05-01 14:37 49.49949 11.06477 1019 ft 9 kts
2026-05-01 14:37 49.49993 11.06533 1019 ft 8 kts 77°
2026-05-01 14:38 49.49992 11.06565 1019 ft 0 kts 98°
2026-05-01 14:38 49.49987 11.06617 1019 ft 27 kts 99°
2026-05-01 14:38 49.49920 11.07292 1022 ft 97 kts 98°
2026-05-01 14:38 49.49791 11.08607 1037 ft 151 kts 101°
2026-05-01 14:39 49.49593 11.10327 1375 ft 170 kts 101°
2026-05-01 14:39 49.49449 11.12091 2137 ft 166 kts 98°
2026-05-01 14:39 49.49296 11.13790 2878 ft 158 kts 98°
2026-05-01 14:39 49.49124 11.15437 3415 ft 158 kts 98°
2026-05-01 14:40 49.49081 11.17129 3866 ft 162 kts 82°
2026-05-01 14:40 49.49398 11.18796 4347 ft 166 kts 68°
2026-05-01 14:40 49.49981 11.20392 4694 ft 179 kts 56°
2026-05-01 14:40 49.50892 11.21784 5024 ft 193 kts 40°
2026-05-01 14:41 49.52045 11.23042 5310 ft 211 kts 38°
2026-05-01 14:41 49.53257 11.24378 5772 ft 221 kts 39°
2026-05-01 14:41 49.54508 11.25807 6318 ft 228 kts 39°
2026-05-01 14:41 49.55816 11.27320 6729 ft 243 kts 39°
2026-05-01 14:42 49.57196 11.28920 7141 ft 257 kts 39°
2026-05-01 14:42 49.58652 11.30602 7656 ft 266 kts 39°
2026-05-01 14:42 49.60138 11.32317 8267 ft 272 kts 39°
2026-05-01 14:42 49.61665 11.34078 8989 ft 275 kts 39°
2026-05-01 14:43 49.63189 11.35839 9690 ft 278 kts 39°
2026-05-01 14:43 49.64728 11.37621 10406 ft 281 kts 39°
2026-05-01 14:43 49.66296 11.39439 10950 ft 291 kts 39°
2026-05-01 14:43 49.67944 11.41355 11369 ft 305 kts 39°
2026-05-01 14:44 49.69685 11.43379 11792 ft 320 kts 39°
2026-05-01 14:44 49.73276 11.47551 13174 ft 329 kts 39°
2026-05-01 14:44 49.75111 11.49684 13947 ft 332 kts 38°
2026-05-01 14:45 49.76959 11.51836 14699 ft 335 kts 38°
2026-05-01 14:45 49.80698 11.56198 16206 ft 342 kts 38°
2026-05-01 14:45 49.82577 11.58394 16954 ft 345 kts 38°
2026-05-01 14:46 49.84501 11.60644 17659 ft 349 kts 38°
2026-05-01 14:46 49.88386 11.65196 19078 ft 355 kts 39°
2026-05-01 14:46 49.90349 11.67500 19758 ft 358 kts 39°
2026-05-01 14:47 49.92340 11.69838 20444 ft 361 kts 39°
2026-05-01 14:47 49.94369 11.72224 21095 ft 364 kts 39°
2026-05-01 14:47 49.96411 11.74628 21699 ft 369 kts 38°
2026-05-01 14:48 50.00636 11.79610 22960 ft 375 kts 38°
2026-05-01 14:48 50.02809 11.82176 23574 ft 379 kts 38°
2026-05-01 14:48 50.07161 11.87325 24744 ft 385 kts 38°
2026-05-01 14:49 50.11538 11.92516 25813 ft 391 kts 38°
2026-05-01 14:49 50.15901 11.97704 26827 ft 396 kts 38°
2026-05-01 14:50 50.19611 12.02124 27626 ft 401 kts 38°
2026-05-01 14:50 50.24809 12.08333 28691 ft 407 kts 38°
2026-05-01 14:51 50.27048 12.11012 29106 ft 410 kts 38°
2026-05-01 14:51 50.31535 12.16502 29921 ft 415 kts 41°
2026-05-01 14:52 50.35444 12.23205 30685 ft 420 kts 54°
2026-05-01 14:52 50.37013 12.27057 31087 ft 422 kts 59°
2026-05-01 14:52 50.39777 12.35065 32167 ft 418 kts 61°
2026-05-01 14:53 50.41106 12.39137 32627 ft 417 kts 62°
2026-05-01 14:53 50.42427 12.43201 33035 ft 418 kts 62°
2026-05-01 14:53 50.43758 12.47291 33433 ft 418 kts 61°
2026-05-01 14:53 50.45081 12.51334 33832 ft 417 kts 61°
2026-05-01 14:54 50.46419 12.55410 34232 ft 417 kts 61°
2026-05-01 14:54 50.47750 12.59446 34601 ft 417 kts 61°
2026-05-01 14:54 50.49088 12.63495 35020 ft 416 kts 61°
2026-05-01 14:54 50.50413 12.67506 35513 ft 413 kts 61°
2026-05-01 14:55 50.51743 12.71528 35907 ft 413 kts 61°
2026-05-01 14:55 50.53060 12.75517 36284 ft 412 kts 61°
2026-05-01 14:55 50.54380 12.79519 36653 ft 411 kts 61°
2026-05-01 14:55 50.55682 12.83472 37016 ft 410 kts 61°
2026-05-01 14:56 50.56992 12.87451 37326 ft 410 kts 61°
2026-05-01 14:56 50.59613 12.95433 37343 ft 411 kts 61°
2026-05-01 14:57 50.62574 13.03027 37342 ft 407 kts 48°
2026-05-01 14:57 50.66881 13.08682 37348 ft 407 kts 30°
2026-05-01 14:57 50.69354 13.10872 37342 ft 405 kts 27°
2026-05-01 14:58 50.74359 13.14840 37347 ft 405 kts 26°
2026-05-01 14:58 50.79407 13.18722 37346 ft 405 kts 26°
2026-05-01 14:59 50.84453 13.22643 37350 ft 404 kts 26°
2026-05-01 14:59 50.89422 13.26549 37351 ft 405 kts 26°
2026-05-01 15:00 50.96759 13.33331 37346 ft 405 kts 38°
2026-05-01 15:01 51.00813 13.39533 37349 ft 406 kts 46°
2026-05-01 15:01 51.04556 13.46173 37354 ft 405 kts 47°
2026-05-01 15:02 51.08276 13.52897 37353 ft 404 kts 47°
2026-05-01 15:02 51.11981 13.59564 37354 ft 406 kts 47°
2026-05-01 15:03 51.15709 13.66244 37357 ft 406 kts 47°
2026-05-01 15:03 51.19464 13.72969 37359 ft 405 kts 47°
2026-05-01 15:04 51.23186 13.79645 37352 ft 405 kts 47°
2026-05-01 15:04 51.26907 13.86332 37355 ft 404 kts 47°
2026-05-01 15:05 51.30624 13.93029 37350 ft 404 kts 47°
2026-05-01 15:05 51.34330 13.99725 37014 ft 403 kts 47°
2026-05-01 15:05 51.36169 14.03054 37614 ft 401 kts 47°
2026-05-01 15:06 51.38028 14.06423 37363 ft 406 kts 47°
2026-05-01 15:06 51.41703 14.13101 37344 ft 400 kts 47°
2026-05-01 15:07 51.45398 14.19830 37344 ft 404 kts 47°
2026-05-01 15:07 51.49066 14.26526 37337 ft 402 kts 47°
2026-05-01 15:08 51.52729 14.33233 37336 ft 401 kts 47°
2026-05-01 15:08 51.56410 14.39990 37328 ft 402 kts 47°
2026-05-01 15:09 51.60043 14.46676 37325 ft 400 kts 47°
2026-05-01 15:09 51.63697 14.53421 37328 ft 400 kts 47°
2026-05-01 15:10 51.67345 14.60171 37328 ft 400 kts 47°
2026-05-01 15:10 51.72748 14.70388 37323 ft 402 kts 51°
2026-05-01 15:11 51.77595 14.81370 37322 ft 402 kts 53°
2026-05-01 15:12 51.80752 14.88744 37323 ft 401 kts 53°
2026-05-01 15:12 51.85515 14.99777 37308 ft 400 kts 53°
2026-05-01 15:14 51.93465 15.18134 37311 ft 400 kts 53°
2026-05-01 15:14 51.98225 15.29171 37309 ft 400 kts 53°
2026-05-01 15:15 52.04559 15.43927 37318 ft 399 kts 53°
2026-05-01 15:16 52.10851 15.58668 37315 ft 399 kts 53°
2026-05-01 15:18 52.18708 15.77199 37319 ft 397 kts 53°
2026-05-01 15:19 52.24884 15.92065 37312 ft 397 kts 56°
2026-05-01 15:19 52.29044 16.03699 37302 ft 398 kts 57°
2026-05-01 15:20 52.33234 16.15588 37310 ft 399 kts 57°
2026-05-01 15:21 52.36001 16.23387 37312 ft 398 kts 57°
2026-05-01 15:21 52.38778 16.31202 37313 ft 398 kts 57°
2026-05-01 15:21 52.40153 16.35076 37646 ft 398 kts 57°
2026-05-01 15:22 52.42926 16.42905 36953 ft 391 kts 57°
2026-05-01 15:22 52.44288 16.46760 37234 ft 388 kts 57°
2026-05-01 15:22 52.45632 16.50569 37313 ft 391 kts 57°
2026-05-01 15:23 52.48373 16.58338 37321 ft 399 kts 57°
2026-05-01 15:23 52.51125 16.66173 37313 ft 396 kts 57°
2026-05-01 15:24 52.53811 16.73846 37317 ft 396 kts 57°
2026-05-01 15:24 52.56541 16.81668 37455 ft 399 kts 58°
2026-05-01 15:25 52.57916 16.85617 37318 ft 392 kts 57°
2026-05-01 15:25 52.59250 16.89460 37100 ft 386 kts 58°
2026-05-01 15:25 52.60573 16.93276 37318 ft 387 kts 57°
2026-05-01 15:25 52.61912 16.97138 37321 ft 392 kts 57°
2026-05-01 15:26 52.64619 17.04952 37308 ft 396 kts 57°
2026-05-01 15:26 52.67318 17.12786 37304 ft 394 kts 57°
2026-05-01 15:27 52.70009 17.20614 37307 ft 395 kts 57°
2026-05-01 15:28 52.74032 17.32369 37314 ft 394 kts 57°
2026-05-01 15:28 52.76722 17.40258 37303 ft 394 kts 57°
2026-05-01 15:29 52.80403 17.52317 37302 ft 395 kts 64°
2026-05-01 15:30 52.84389 17.69246 37294 ft 396 kts 65°
2026-05-01 15:31 52.90326 17.94323 37291 ft 395 kts 65°
2026-05-01 15:32 52.94318 18.11183 37293 ft 393 kts 65°
2026-05-01 15:34 53.00252 18.36483 37289 ft 394 kts 65°